category,name,time,total,current
核能(Nuclear),核一#1,00:00:00,636,0
核能(Nuclear),核一#1,00:10:00,636,0
核能(Nuclear),核一#1,00:20:00,636,0
核能(Nuclear),核一#1,00:30:00,636,0
核能(Nuclear),核一#1,00:40:00,636,0
核能(Nuclear),核一#1,00:50:00,636,0
核能(Nuclear),核一#1,01:00:00,636,0
核能(Nuclear),核一#1,01:10:00,636,0
核能(Nuclear),核一#1,01:20:00,636,0
核能(Nuclear),核一#1,01:30:00,636,0
核能(Nuclear),核一#1,01:40:00,636,0
核能(Nuclear),核一#1,01:50:00,636,0
核能(Nuclear),核一#1,02:00:00,636,0
核能(Nuclear),核一#1,02:10:00,636,0
核能(Nuclear),核一#1,02:20:00,636,0
核能(Nuclear),核一#1,02:30:00,636,0
核能(Nuclear),核一#1,02:40:00,636,0
核能(Nuclear),核一#1,02:50:00,636,0
核能(Nuclear),核一#1,03:00:00,636,0
核能(Nuclear),核一#1,03:10:00,636,0
核能(Nuclear),核一#1,03:20:00,636,0
核能(Nuclear),核一#1,03:30:00,636,0
核能(Nuclear),核一#1,03:40:00,636,0
核能(Nuclear),核一#1,03:50:00,636,0
核能(Nuclear),核一#1,04:00:00,636,0
核能(Nuclear),核一#1,04:10:00,636,0
核能(Nuclear),核一#1,04:20:00,636,0
核能(Nuclear),核一#1,04:30:00,636,0
核能(Nuclear),核一#1,04:40:00,636,0
核能(Nuclear),核一#1,04:50:00,636,0
核能(Nuclear),核一#1,05:00:00,636,0
核能(Nuclear),核一#1,05:10:00,636,0
核能(Nuclear),核一#1,05:20:00,636,0
核能(Nuclear),核一#1,05:30:00,636,0
核能(Nuclear),核一#1,05:40:00,636,0
核能(Nuclear),核一#1,05:50:00,636,0
核能(Nuclear),核一#1,06:00:00,636,0
核能(Nuclear),核一#1,06:10:00,636,0
核能(Nuclear),核一#1,06:20:00,636,0
核能(Nuclear),核一#1,06:30:00,636,0
核能(Nuclear),核一#1,06:40:00,636,0
核能(Nuclear),核一#1,06:50:00,636,0
核能(Nuclear),核一#1,07:00:00,636,0
核能(Nuclear),核一#1,07:10:00,636,0
核能(Nuclear),核一#1,07:20:00,636,0
核能(Nuclear),核一#1,07:30:00,636,0
核能(Nuclear),核一#1,07:40:00,636,0
核能(Nuclear),核一#1,07:50:00,636,0
核能(Nuclear),核一#1,08:00:00,636,0
核能(Nuclear),核一#1,08:10:00,636,0
核能(Nuclear),核一#1,08:20:00,636,0
核能(Nuclear),核一#1,08:30:00,636,0
核能(Nuclear),核一#1,08:40:00,636,0
核能(Nuclear),核一#1,08:50:00,636,0
核能(Nuclear),核一#1,09:00:00,636,0
核能(Nuclear),核一#1,09:10:00,636,0
核能(Nuclear),核一#1,09:20:00,636,0
核能(Nuclear),核一#1,09:30:00,636,0
核能(Nuclear),核一#1,09:40:00,636,0
核能(Nuclear),核一#1,09:50:00,636,0
核能(Nuclear),核一#1,10:00:00,636,0
核能(Nuclear),核一#1,10:10:00,636,0
核能(Nuclear),核一#1,10:20:00,636,0
核能(Nuclear),核一#1,10:30:00,636,0
核能(Nuclear),核一#1,10:40:00,636,0
核能(Nuclear),核一#1,10:50:00,636,0
核能(Nuclear),核一#1,11:00:00,636,0
核能(Nuclear),核一#1,11:10:00,636,0
核能(Nuclear),核一#1,11:20:00,636,0
核能(Nuclear),核一#1,11:30:00,636,0
核能(Nuclear),核一#1,11:40:00,636,0
核能(Nuclear),核一#1,11:50:00,636,0
核能(Nuclear),核一#1,12:00:00,636,0
核能(Nuclear),核一#1,12:10:00,636,0
核能(Nuclear),核一#1,12:20:00,636,0
核能(Nuclear),核一#1,12:30:00,636,0
核能(Nuclear),核一#1,12:40:00,636,0
核能(Nuclear),核一#1,12:50:00,636,0
核能(Nuclear),核一#1,13:00:00,636,0
核能(Nuclear),核一#1,13:10:00,636,0
核能(Nuclear),核一#1,13:20:00,636,0
核能(Nuclear),核一#1,13:30:00,636,0
核能(Nuclear),核一#1,13:40:00,636,0
核能(Nuclear),核一#1,13:50:00,636,0
核能(Nuclear),核一#1,14:00:00,636,0
核能(Nuclear),核一#1,14:10:00,636,0
核能(Nuclear),核一#1,14:20:00,636,0
核能(Nuclear),核一#1,14:30:00,636,0
核能(Nuclear),核一#1,14:40:00,636,0
核能(Nuclear),核一#1,14:50:00,636,0
核能(Nuclear),核一#1,15:00:00,636,0
核能(Nuclear),核一#1,15:10:00,636,0
核能(Nuclear),核一#1,15:20:00,636,0
核能(Nuclear),核一#1,15:30:00,636,0
核能(Nuclear),核一#1,15:40:00,636,0
核能(Nuclear),核一#1,15:50:00,636,0
核能(Nuclear),核一#1,16:00:00,636,0
核能(Nuclear),核一#1,16:10:00,636,0
核能(Nuclear),核一#1,16:20:00,636,0
核能(Nuclear),核一#1,16:30:00,636,0
核能(Nuclear),核一#1,16:40:00,636,0
核能(Nuclear),核一#1,16:50:00,636,0
核能(Nuclear),核一#1,17:00:00,636,0
核能(Nuclear),核一#1,17:10:00,636,0
核能(Nuclear),核一#1,17:20:00,636,0
核能(Nuclear),核一#1,17:30:00,636,0
核能(Nuclear),核一#1,17:40:00,636,0
核能(Nuclear),核一#1,17:50:00,636,0
核能(Nuclear),核一#1,18:00:00,636,0
核能(Nuclear),核一#1,18:10:00,636,0
核能(Nuclear),核一#1,18:20:00,636,0
核能(Nuclear),核一#1,18:30:00,636,0
核能(Nuclear),核一#1,18:40:00,636,0
核能(Nuclear),核一#1,18:50:00,636,0
核能(Nuclear),核一#1,19:00:00,636,0
核能(Nuclear),核一#1,19:10:00,636,0
核能(Nuclear),核一#1,19:20:00,636,0
核能(Nuclear),核一#1,19:30:00,636,0
核能(Nuclear),核一#1,19:40:00,636,0
核能(Nuclear),核一#1,19:50:00,636,0
核能(Nuclear),核一#1,20:00:00,636,0
核能(Nuclear),核一#1,20:10:00,636,0
核能(Nuclear),核一#1,20:20:00,636,0
核能(Nuclear),核一#1,20:30:00,636,0
核能(Nuclear),核一#1,20:40:00,636,0
核能(Nuclear),核一#1,20:50:00,636,0
核能(Nuclear),核一#1,21:00:00,636,0
核能(Nuclear),核一#1,21:10:00,636,0
核能(Nuclear),核一#1,21:20:00,636,0
核能(Nuclear),核一#1,21:30:00,636,0
核能(Nuclear),核一#1,21:40:00,636,0
核能(Nuclear),核一#1,21:50:00,636,0
核能(Nuclear),核一#1,22:00:00,636,0
核能(Nuclear),核一#1,22:10:00,636,0
核能(Nuclear),核一#1,22:20:00,636,0
核能(Nuclear),核一#1,22:30:00,636,0
核能(Nuclear),核一#1,22:40:00,636,0
核能(Nuclear),核一#1,22:50:00,636,0
核能(Nuclear),核一#1,23:00:00,636,0
核能(Nuclear),核一#1,23:10:00,636,0
核能(Nuclear),核一#1,23:20:00,636,0
核能(Nuclear),核一#1,23:30:00,636,0
核能(Nuclear),核一#1,23:40:00,636,0
核能(Nuclear),核一#1,23:50:00,636,0
核能(Nuclear),核一#2,00:00:00,636,0
核能(Nuclear),核一#2,00:10:00,636,0
核能(Nuclear),核一#2,00:20:00,636,0
核能(Nuclear),核一#2,00:30:00,636,0
核能(Nuclear),核一#2,00:40:00,636,0
核能(Nuclear),核一#2,00:50:00,636,0
核能(Nuclear),核一#2,01:00:00,636,0
核能(Nuclear),核一#2,01:10:00,636,0
核能(Nuclear),核一#2,01:20:00,636,0
核能(Nuclear),核一#2,01:30:00,636,0
核能(Nuclear),核一#2,01:40:00,636,0
核能(Nuclear),核一#2,01:50:00,636,0
核能(Nuclear),核一#2,02:00:00,636,0
核能(Nuclear),核一#2,02:10:00,636,0
核能(Nuclear),核一#2,02:20:00,636,0
核能(Nuclear),核一#2,02:30:00,636,0
核能(Nuclear),核一#2,02:40:00,636,0
核能(Nuclear),核一#2,02:50:00,636,0
核能(Nuclear),核一#2,03:00:00,636,0
核能(Nuclear),核一#2,03:10:00,636,0
核能(Nuclear),核一#2,03:20:00,636,0
核能(Nuclear),核一#2,03:30:00,636,0
核能(Nuclear),核一#2,03:40:00,636,0
核能(Nuclear),核一#2,03:50:00,636,0
核能(Nuclear),核一#2,04:00:00,636,0
核能(Nuclear),核一#2,04:10:00,636,0
核能(Nuclear),核一#2,04:20:00,636,0
核能(Nuclear),核一#2,04:30:00,636,0
核能(Nuclear),核一#2,04:40:00,636,0
核能(Nuclear),核一#2,04:50:00,636,0
核能(Nuclear),核一#2,05:00:00,636,0
核能(Nuclear),核一#2,05:10:00,636,0
核能(Nuclear),核一#2,05:20:00,636,0
核能(Nuclear),核一#2,05:30:00,636,0
核能(Nuclear),核一#2,05:40:00,636,0
核能(Nuclear),核一#2,05:50:00,636,0
核能(Nuclear),核一#2,06:00:00,636,0
核能(Nuclear),核一#2,06:10:00,636,0
核能(Nuclear),核一#2,06:20:00,636,0
核能(Nuclear),核一#2,06:30:00,636,0
核能(Nuclear),核一#2,06:40:00,636,0
核能(Nuclear),核一#2,06:50:00,636,0
核能(Nuclear),核一#2,07:00:00,636,0
核能(Nuclear),核一#2,07:10:00,636,0
核能(Nuclear),核一#2,07:20:00,636,0
核能(Nuclear),核一#2,07:30:00,636,0
核能(Nuclear),核一#2,07:40:00,636,0
核能(Nuclear),核一#2,07:50:00,636,0
核能(Nuclear),核一#2,08:00:00,636,0
核能(Nuclear),核一#2,08:10:00,636,0
核能(Nuclear),核一#2,08:20:00,636,0
核能(Nuclear),核一#2,08:30:00,636,0
核能(Nuclear),核一#2,08:40:00,636,0
核能(Nuclear),核一#2,08:50:00,636,0
核能(Nuclear),核一#2,09:00:00,636,0
核能(Nuclear),核一#2,09:10:00,636,0
核能(Nuclear),核一#2,09:20:00,636,0
核能(Nuclear),核一#2,09:30:00,636,0
核能(Nuclear),核一#2,09:40:00,636,0
核能(Nuclear),核一#2,09:50:00,636,0
核能(Nuclear),核一#2,10:00:00,636,0
核能(Nuclear),核一#2,10:10:00,636,0
核能(Nuclear),核一#2,10:20:00,636,0
核能(Nuclear),核一#2,10:30:00,636,0
核能(Nuclear),核一#2,10:40:00,636,0
核能(Nuclear),核一#2,10:50:00,636,0
核能(Nuclear),核一#2,11:00:00,636,0
核能(Nuclear),核一#2,11:10:00,636,0
核能(Nuclear),核一#2,11:20:00,636,0
核能(Nuclear),核一#2,11:30:00,636,0
核能(Nuclear),核一#2,11:40:00,636,0
核能(Nuclear),核一#2,11:50:00,636,0
核能(Nuclear),核一#2,12:00:00,636,0
核能(Nuclear),核一#2,12:10:00,636,0
核能(Nuclear),核一#2,12:20:00,636,0
核能(Nuclear),核一#2,12:30:00,636,0
核能(Nuclear),核一#2,12:40:00,636,0
核能(Nuclear),核一#2,12:50:00,636,0
核能(Nuclear),核一#2,13:00:00,636,0
核能(Nuclear),核一#2,13:10:00,636,0
核能(Nuclear),核一#2,13:20:00,636,0
核能(Nuclear),核一#2,13:30:00,636,0
核能(Nuclear),核一#2,13:40:00,636,0
核能(Nuclear),核一#2,13:50:00,636,0
核能(Nuclear),核一#2,14:00:00,636,0
核能(Nuclear),核一#2,14:10:00,636,0
核能(Nuclear),核一#2,14:20:00,636,0
核能(Nuclear),核一#2,14:30:00,636,0
核能(Nuclear),核一#2,14:40:00,636,0
核能(Nuclear),核一#2,14:50:00,636,0
核能(Nuclear),核一#2,15:00:00,636,0
核能(Nuclear),核一#2,15:10:00,636,0
核能(Nuclear),核一#2,15:20:00,636,0
核能(Nuclear),核一#2,15:30:00,636,0
核能(Nuclear),核一#2,15:40:00,636,0
核能(Nuclear),核一#2,15:50:00,636,0
核能(Nuclear),核一#2,16:00:00,636,0
核能(Nuclear),核一#2,16:10:00,636,0
核能(Nuclear),核一#2,16:20:00,636,0
核能(Nuclear),核一#2,16:30:00,636,0
核能(Nuclear),核一#2,16:40:00,636,0
核能(Nuclear),核一#2,16:50:00,636,0
核能(Nuclear),核一#2,17:00:00,636,0
核能(Nuclear),核一#2,17:10:00,636,0
核能(Nuclear),核一#2,17:20:00,636,0
核能(Nuclear),核一#2,17:30:00,636,0
核能(Nuclear),核一#2,17:40:00,636,0
核能(Nuclear),核一#2,17:50:00,636,0
核能(Nuclear),核一#2,18:00:00,636,0
核能(Nuclear),核一#2,18:10:00,636,0
核能(Nuclear),核一#2,18:20:00,636,0
核能(Nuclear),核一#2,18:30:00,636,0
核能(Nuclear),核一#2,18:40:00,636,0
核能(Nuclear),核一#2,18:50:00,636,0
核能(Nuclear),核一#2,19:00:00,636,0
核能(Nuclear),核一#2,19:10:00,636,0
核能(Nuclear),核一#2,19:20:00,636,0
核能(Nuclear),核一#2,19:30:00,636,0
核能(Nuclear),核一#2,19:40:00,636,0
核能(Nuclear),核一#2,19:50:00,636,0
核能(Nuclear),核一#2,20:00:00,636,0
核能(Nuclear),核一#2,20:10:00,636,0
核能(Nuclear),核一#2,20:20:00,636,0
核能(Nuclear),核一#2,20:30:00,636,0
核能(Nuclear),核一#2,20:40:00,636,0
核能(Nuclear),核一#2,20:50:00,636,0
核能(Nuclear),核一#2,21:00:00,636,0
核能(Nuclear),核一#2,21:10:00,636,0
核能(Nuclear),核一#2,21:20:00,636,0
核能(Nuclear),核一#2,21:30:00,636,0
核能(Nuclear),核一#2,21:40:00,636,0
核能(Nuclear),核一#2,21:50:00,636,0
核能(Nuclear),核一#2,22:00:00,636,0
核能(Nuclear),核一#2,22:10:00,636,0
核能(Nuclear),核一#2,22:20:00,636,0
核能(Nuclear),核一#2,22:30:00,636,0
核能(Nuclear),核一#2,22:40:00,636,0
核能(Nuclear),核一#2,22:50:00,636,0
核能(Nuclear),核一#2,23:00:00,636,0
核能(Nuclear),核一#2,23:10:00,636,0
核能(Nuclear),核一#2,23:20:00,636,0
核能(Nuclear),核一#2,23:30:00,636,0
核能(Nuclear),核一#2,23:40:00,636,0
核能(Nuclear),核一#2,23:50:00,636,0
核能(Nuclear),核二#1,00:00:00,985,974.6
核能(Nuclear),核二#1,00:10:00,985,971.9
核能(Nuclear),核二#1,00:20:00,985,970.6
核能(Nuclear),核二#1,00:30:00,985,974.6
核能(Nuclear),核二#1,00:40:00,985,973.2
核能(Nuclear),核二#1,00:50:00,985,973.2
核能(Nuclear),核二#1,01:00:00,985,970.6
核能(Nuclear),核二#1,01:10:00,985,973.2
核能(Nuclear),核二#1,01:20:00,985,974.6
核能(Nuclear),核二#1,01:30:00,985,973.2
核能(Nuclear),核二#1,01:40:00,985,973.2
核能(Nuclear),核二#1,01:50:00,985,971.9
核能(Nuclear),核二#1,02:00:00,985,975.9
核能(Nuclear),核二#1,02:10:00,985,973.2
核能(Nuclear),核二#1,02:20:00,985,973.2
核能(Nuclear),核二#1,02:30:00,985,973.2
核能(Nuclear),核二#1,02:40:00,985,973.2
核能(Nuclear),核二#1,02:50:00,985,973.2
核能(Nuclear),核二#1,03:00:00,985,970.6
核能(Nuclear),核二#1,03:10:00,985,971.9
核能(Nuclear),核二#1,03:20:00,985,974.6
核能(Nuclear),核二#1,03:30:00,985,971.9
核能(Nuclear),核二#1,03:40:00,985,973.2
核能(Nuclear),核二#1,03:50:00,985,970.6
核能(Nuclear),核二#1,04:00:00,985,971.9
核能(Nuclear),核二#1,04:10:00,985,970.6
核能(Nuclear),核二#1,04:20:00,985,973.2
核能(Nuclear),核二#1,04:30:00,985,971.9
核能(Nuclear),核二#1,04:40:00,985,971.9
核能(Nuclear),核二#1,04:50:00,985,970.6
核能(Nuclear),核二#1,05:00:00,985,971.9
核能(Nuclear),核二#1,05:10:00,985,971.9
核能(Nuclear),核二#1,05:20:00,985,973.2
核能(Nuclear),核二#1,05:30:00,985,971.9
核能(Nuclear),核二#1,05:40:00,985,971.9
核能(Nuclear),核二#1,05:50:00,985,969.2
核能(Nuclear),核二#1,06:00:00,985,971.9
核能(Nuclear),核二#1,06:10:00,985,971.9
核能(Nuclear),核二#1,06:20:00,985,970.6
核能(Nuclear),核二#1,06:30:00,985,970.6
核能(Nuclear),核二#1,06:40:00,985,971.9
核能(Nuclear),核二#1,06:50:00,985,971.9
核能(Nuclear),核二#1,07:00:00,985,969.2
核能(Nuclear),核二#1,07:10:00,985,970.6
核能(Nuclear),核二#1,07:20:00,985,971.9
核能(Nuclear),核二#1,07:30:00,985,970.6
核能(Nuclear),核二#1,07:40:00,985,970.6
核能(Nuclear),核二#1,07:50:00,985,969.2
核能(Nuclear),核二#1,08:00:00,985,969.2
核能(Nuclear),核二#1,08:10:00,985,971.9
核能(Nuclear),核二#1,08:20:00,985,969.2
核能(Nuclear),核二#1,08:30:00,985,967.9
核能(Nuclear),核二#1,08:40:00,985,969.2
核能(Nuclear),核二#1,08:50:00,985,967.9
核能(Nuclear),核二#1,09:00:00,985,970.6
核能(Nuclear),核二#1,09:10:00,985,966.5
核能(Nuclear),核二#1,09:20:00,985,966.5
核能(Nuclear),核二#1,09:30:00,985,970.6
核能(Nuclear),核二#1,09:40:00,985,967.9
核能(Nuclear),核二#1,09:50:00,985,969.2
核能(Nuclear),核二#1,10:00:00,985,967.9
核能(Nuclear),核二#1,10:10:00,985,969.2
核能(Nuclear),核二#1,10:20:00,985,969.2
核能(Nuclear),核二#1,10:30:00,985,969.2
核能(Nuclear),核二#1,10:40:00,985,967.9
核能(Nuclear),核二#1,10:50:00,985,969.2
核能(Nuclear),核二#1,11:00:00,985,969.2
核能(Nuclear),核二#1,11:10:00,985,967.9
核能(Nuclear),核二#1,11:20:00,985,969.2
核能(Nuclear),核二#1,11:30:00,985,969.2
核能(Nuclear),核二#1,11:40:00,985,967.9
核能(Nuclear),核二#1,11:50:00,985,967.9
核能(Nuclear),核二#1,12:00:00,985,969.2
核能(Nuclear),核二#1,12:10:00,985,967.9
核能(Nuclear),核二#1,12:20:00,985,967.9
核能(Nuclear),核二#1,12:30:00,985,969.2
核能(Nuclear),核二#1,12:40:00,985,969.2
核能(Nuclear),核二#1,12:50:00,985,969.2
核能(Nuclear),核二#1,13:00:00,985,967.9
核能(Nuclear),核二#1,13:10:00,985,967.9
核能(Nuclear),核二#1,13:20:00,985,967.9
核能(Nuclear),核二#1,13:30:00,985,967.9
核能(Nuclear),核二#1,13:40:00,985,967.9
核能(Nuclear),核二#1,13:50:00,985,966.5
核能(Nuclear),核二#1,14:00:00,985,967.9
核能(Nuclear),核二#1,14:10:00,985,969.2
核能(Nuclear),核二#1,14:20:00,985,967.9
核能(Nuclear),核二#1,14:30:00,985,967.9
核能(Nuclear),核二#1,14:40:00,985,969.2
核能(Nuclear),核二#1,14:50:00,985,970.6
核能(Nuclear),核二#1,15:00:00,985,969.2
核能(Nuclear),核二#1,15:10:00,985,969.2
核能(Nuclear),核二#1,15:20:00,985,969.2
核能(Nuclear),核二#1,15:30:00,985,966.5
核能(Nuclear),核二#1,15:40:00,985,967.9
核能(Nuclear),核二#1,15:50:00,985,967.9
核能(Nuclear),核二#1,16:00:00,985,969.2
核能(Nuclear),核二#1,16:10:00,985,967.9
核能(Nuclear),核二#1,16:20:00,985,970.6
核能(Nuclear),核二#1,16:30:00,985,969.2
核能(Nuclear),核二#1,16:40:00,985,970.6
核能(Nuclear),核二#1,16:50:00,985,970.6
核能(Nuclear),核二#1,17:00:00,985,970.6
核能(Nuclear),核二#1,17:10:00,985,967.9
核能(Nuclear),核二#1,17:20:00,985,967.9
核能(Nuclear),核二#1,17:30:00,985,966.5
核能(Nuclear),核二#1,17:40:00,985,971.9
核能(Nuclear),核二#1,17:50:00,985,969.2
核能(Nuclear),核二#1,18:00:00,985,967.9
核能(Nuclear),核二#1,18:10:00,985,971.9
核能(Nuclear),核二#1,18:20:00,985,967.9
核能(Nuclear),核二#1,18:30:00,985,970.6
核能(Nuclear),核二#1,18:40:00,985,967.9
核能(Nuclear),核二#1,18:50:00,985,969.2
核能(Nuclear),核二#1,19:00:00,985,967.9
核能(Nuclear),核二#1,19:10:00,985,971.9
核能(Nuclear),核二#1,19:20:00,985,969.2
核能(Nuclear),核二#1,19:30:00,985,970.6
核能(Nuclear),核二#1,19:40:00,985,967.9
核能(Nuclear),核二#1,19:50:00,985,971.9
核能(Nuclear),核二#1,20:00:00,985,969.2
核能(Nuclear),核二#1,20:10:00,985,967.9
核能(Nuclear),核二#1,20:20:00,985,971.9
核能(Nuclear),核二#1,20:30:00,985,970.6
核能(Nuclear),核二#1,20:40:00,985,970.6
核能(Nuclear),核二#1,20:50:00,985,966.5
核能(Nuclear),核二#1,21:00:00,985,969.2
核能(Nuclear),核二#1,21:10:00,985,970.6
核能(Nuclear),核二#1,21:20:00,985,967.9
核能(Nuclear),核二#1,21:30:00,985,969.2
核能(Nuclear),核二#1,21:40:00,985,970.6
核能(Nuclear),核二#1,21:50:00,985,967.9
核能(Nuclear),核二#1,22:00:00,985,970.6
核能(Nuclear),核二#1,22:10:00,985,970.6
核能(Nuclear),核二#1,22:20:00,985,969.2
核能(Nuclear),核二#1,22:30:00,985,969.2
核能(Nuclear),核二#1,22:40:00,985,969.2
核能(Nuclear),核二#1,22:50:00,985,970.6
核能(Nuclear),核二#1,23:00:00,985,970.6
核能(Nuclear),核二#1,23:10:00,985,969.2
核能(Nuclear),核二#1,23:20:00,985,970.6
核能(Nuclear),核二#1,23:30:00,985,967.9
核能(Nuclear),核二#1,23:40:00,985,970.6
核能(Nuclear),核二#1,23:50:00,985,969.2
核能(Nuclear),核二#2,00:00:00,985,0
核能(Nuclear),核二#2,00:10:00,985,0
核能(Nuclear),核二#2,00:20:00,985,0
核能(Nuclear),核二#2,00:30:00,985,0
核能(Nuclear),核二#2,00:40:00,985,0
核能(Nuclear),核二#2,00:50:00,985,0
核能(Nuclear),核二#2,01:00:00,985,0
核能(Nuclear),核二#2,01:10:00,985,0
核能(Nuclear),核二#2,01:20:00,985,0
核能(Nuclear),核二#2,01:30:00,985,0
核能(Nuclear),核二#2,01:40:00,985,0
核能(Nuclear),核二#2,01:50:00,985,0
核能(Nuclear),核二#2,02:00:00,985,0
核能(Nuclear),核二#2,02:10:00,985,0
核能(Nuclear),核二#2,02:20:00,985,0
核能(Nuclear),核二#2,02:30:00,985,0
核能(Nuclear),核二#2,02:40:00,985,0
核能(Nuclear),核二#2,02:50:00,985,0
核能(Nuclear),核二#2,03:00:00,985,0
核能(Nuclear),核二#2,03:10:00,985,0
核能(Nuclear),核二#2,03:20:00,985,0
核能(Nuclear),核二#2,03:30:00,985,0
核能(Nuclear),核二#2,03:40:00,985,0
核能(Nuclear),核二#2,03:50:00,985,0
核能(Nuclear),核二#2,04:00:00,985,0
核能(Nuclear),核二#2,04:10:00,985,0
核能(Nuclear),核二#2,04:20:00,985,0
核能(Nuclear),核二#2,04:30:00,985,0
核能(Nuclear),核二#2,04:40:00,985,0
核能(Nuclear),核二#2,04:50:00,985,0
核能(Nuclear),核二#2,05:00:00,985,0
核能(Nuclear),核二#2,05:10:00,985,0
核能(Nuclear),核二#2,05:20:00,985,0
核能(Nuclear),核二#2,05:30:00,985,0
核能(Nuclear),核二#2,05:40:00,985,0
核能(Nuclear),核二#2,05:50:00,985,0
核能(Nuclear),核二#2,06:00:00,985,0
核能(Nuclear),核二#2,06:10:00,985,0
核能(Nuclear),核二#2,06:20:00,985,0
核能(Nuclear),核二#2,06:30:00,985,0
核能(Nuclear),核二#2,06:40:00,985,0
核能(Nuclear),核二#2,06:50:00,985,0
核能(Nuclear),核二#2,07:00:00,985,0
核能(Nuclear),核二#2,07:10:00,985,0
核能(Nuclear),核二#2,07:20:00,985,0
核能(Nuclear),核二#2,07:30:00,985,0
核能(Nuclear),核二#2,07:40:00,985,0
核能(Nuclear),核二#2,07:50:00,985,0
核能(Nuclear),核二#2,08:00:00,985,0
核能(Nuclear),核二#2,08:10:00,985,0
核能(Nuclear),核二#2,08:20:00,985,0
核能(Nuclear),核二#2,08:30:00,985,0
核能(Nuclear),核二#2,08:40:00,985,0
核能(Nuclear),核二#2,08:50:00,985,0
核能(Nuclear),核二#2,09:00:00,985,0
核能(Nuclear),核二#2,09:10:00,985,0
核能(Nuclear),核二#2,09:20:00,985,0
核能(Nuclear),核二#2,09:30:00,985,0
核能(Nuclear),核二#2,09:40:00,985,0
核能(Nuclear),核二#2,09:50:00,985,0
核能(Nuclear),核二#2,10:00:00,985,0
核能(Nuclear),核二#2,10:10:00,985,0
核能(Nuclear),核二#2,10:20:00,985,0
核能(Nuclear),核二#2,10:30:00,985,0
核能(Nuclear),核二#2,10:40:00,985,0
核能(Nuclear),核二#2,10:50:00,985,0
核能(Nuclear),核二#2,11:00:00,985,0
核能(Nuclear),核二#2,11:10:00,985,0
核能(Nuclear),核二#2,11:20:00,985,0
核能(Nuclear),核二#2,11:30:00,985,0
核能(Nuclear),核二#2,11:40:00,985,0
核能(Nuclear),核二#2,11:50:00,985,0
核能(Nuclear),核二#2,12:00:00,985,0
核能(Nuclear),核二#2,12:10:00,985,0
核能(Nuclear),核二#2,12:20:00,985,0
核能(Nuclear),核二#2,12:30:00,985,0
核能(Nuclear),核二#2,12:40:00,985,0
核能(Nuclear),核二#2,12:50:00,985,0
核能(Nuclear),核二#2,13:00:00,985,0
核能(Nuclear),核二#2,13:10:00,985,0
核能(Nuclear),核二#2,13:20:00,985,0
核能(Nuclear),核二#2,13:30:00,985,0
核能(Nuclear),核二#2,13:40:00,985,0
核能(Nuclear),核二#2,13:50:00,985,0
核能(Nuclear),核二#2,14:00:00,985,0
核能(Nuclear),核二#2,14:10:00,985,0
核能(Nuclear),核二#2,14:20:00,985,0
核能(Nuclear),核二#2,14:30:00,985,0
核能(Nuclear),核二#2,14:40:00,985,0
核能(Nuclear),核二#2,14:50:00,985,0
核能(Nuclear),核二#2,15:00:00,985,0
核能(Nuclear),核二#2,15:10:00,985,0
核能(Nuclear),核二#2,15:20:00,985,0
核能(Nuclear),核二#2,15:30:00,985,0
核能(Nuclear),核二#2,15:40:00,985,0
核能(Nuclear),核二#2,15:50:00,985,0
核能(Nuclear),核二#2,16:00:00,985,0
核能(Nuclear),核二#2,16:10:00,985,0
核能(Nuclear),核二#2,16:20:00,985,0
核能(Nuclear),核二#2,16:30:00,985,0
核能(Nuclear),核二#2,16:40:00,985,0
核能(Nuclear),核二#2,16:50:00,985,0
核能(Nuclear),核二#2,17:00:00,985,0
核能(Nuclear),核二#2,17:10:00,985,0
核能(Nuclear),核二#2,17:20:00,985,0
核能(Nuclear),核二#2,17:30:00,985,0
核能(Nuclear),核二#2,17:40:00,985,0
核能(Nuclear),核二#2,17:50:00,985,0
核能(Nuclear),核二#2,18:00:00,985,0
核能(Nuclear),核二#2,18:10:00,985,0
核能(Nuclear),核二#2,18:20:00,985,0
核能(Nuclear),核二#2,18:30:00,985,0
核能(Nuclear),核二#2,18:40:00,985,0
核能(Nuclear),核二#2,18:50:00,985,0
核能(Nuclear),核二#2,19:00:00,985,0
核能(Nuclear),核二#2,19:10:00,985,0
核能(Nuclear),核二#2,19:20:00,985,0
核能(Nuclear),核二#2,19:30:00,985,0
核能(Nuclear),核二#2,19:40:00,985,0
核能(Nuclear),核二#2,19:50:00,985,0
核能(Nuclear),核二#2,20:00:00,985,0
核能(Nuclear),核二#2,20:10:00,985,0
核能(Nuclear),核二#2,20:20:00,985,0
核能(Nuclear),核二#2,20:30:00,985,0
核能(Nuclear),核二#2,20:40:00,985,0
核能(Nuclear),核二#2,20:50:00,985,0
核能(Nuclear),核二#2,21:00:00,985,0
核能(Nuclear),核二#2,21:10:00,985,0
核能(Nuclear),核二#2,21:20:00,985,0
核能(Nuclear),核二#2,21:30:00,985,0
核能(Nuclear),核二#2,21:40:00,985,0
核能(Nuclear),核二#2,21:50:00,985,0
核能(Nuclear),核二#2,22:00:00,985,0
核能(Nuclear),核二#2,22:10:00,985,0
核能(Nuclear),核二#2,22:20:00,985,0
核能(Nuclear),核二#2,22:30:00,985,0
核能(Nuclear),核二#2,22:40:00,985,0
核能(Nuclear),核二#2,22:50:00,985,0
核能(Nuclear),核二#2,23:00:00,985,0
核能(Nuclear),核二#2,23:10:00,985,0
核能(Nuclear),核二#2,23:20:00,985,0
核能(Nuclear),核二#2,23:30:00,985,0
核能(Nuclear),核二#2,23:40:00,985,0
核能(Nuclear),核二#2,23:50:00,985,0
核能(Nuclear),核三#1,00:00:00,951,935.8
核能(Nuclear),核三#1,00:10:00,951,934.7
核能(Nuclear),核三#1,00:20:00,951,933.5
核能(Nuclear),核三#1,00:30:00,951,933.5
核能(Nuclear),核三#1,00:40:00,951,933.5
核能(Nuclear),核三#1,00:50:00,951,932.4
核能(Nuclear),核三#1,01:00:00,951,937
核能(Nuclear),核三#1,01:10:00,951,933.5
核能(Nuclear),核三#1,01:20:00,951,933.5
核能(Nuclear),核三#1,01:30:00,951,933.5
核能(Nuclear),核三#1,01:40:00,951,933.5
核能(Nuclear),核三#1,01:50:00,951,933.5
核能(Nuclear),核三#1,02:00:00,951,934.7
核能(Nuclear),核三#1,02:10:00,951,931.3
核能(Nuclear),核三#1,02:20:00,951,934.7
核能(Nuclear),核三#1,02:30:00,951,934.7
核能(Nuclear),核三#1,02:40:00,951,933.5
核能(Nuclear),核三#1,02:50:00,951,933.5
核能(Nuclear),核三#1,03:00:00,951,934.7
核能(Nuclear),核三#1,03:10:00,951,931.3
核能(Nuclear),核三#1,03:20:00,951,935.8
核能(Nuclear),核三#1,03:30:00,951,932.4
核能(Nuclear),核三#1,03:40:00,951,933.5
核能(Nuclear),核三#1,03:50:00,951,933.5
核能(Nuclear),核三#1,04:00:00,951,933.5
核能(Nuclear),核三#1,04:10:00,951,931.3
核能(Nuclear),核三#1,04:20:00,951,932.4
核能(Nuclear),核三#1,04:30:00,951,930.1
核能(Nuclear),核三#1,04:40:00,951,932.4
核能(Nuclear),核三#1,04:50:00,951,932.4
核能(Nuclear),核三#1,05:00:00,951,931.3
核能(Nuclear),核三#1,05:10:00,951,931.3
核能(Nuclear),核三#1,05:20:00,951,933.5
核能(Nuclear),核三#1,05:30:00,951,933.5
核能(Nuclear),核三#1,05:40:00,951,932.4
核能(Nuclear),核三#1,05:50:00,951,931.3
核能(Nuclear),核三#1,06:00:00,951,933.5
核能(Nuclear),核三#1,06:10:00,951,934.7
核能(Nuclear),核三#1,06:20:00,951,932.4
核能(Nuclear),核三#1,06:30:00,951,932.4
核能(Nuclear),核三#1,06:40:00,951,932.4
核能(Nuclear),核三#1,06:50:00,951,934.7
核能(Nuclear),核三#1,07:00:00,951,932.4
核能(Nuclear),核三#1,07:10:00,951,932.4
核能(Nuclear),核三#1,07:20:00,951,934.7
核能(Nuclear),核三#1,07:30:00,951,932.4
核能(Nuclear),核三#1,07:40:00,951,932.4
核能(Nuclear),核三#1,07:50:00,951,932.4
核能(Nuclear),核三#1,08:00:00,951,931.3
核能(Nuclear),核三#1,08:10:00,951,932.4
核能(Nuclear),核三#1,08:20:00,951,932.4
核能(Nuclear),核三#1,08:30:00,951,932.4
核能(Nuclear),核三#1,08:40:00,951,932.4
核能(Nuclear),核三#1,08:50:00,951,931.3
核能(Nuclear),核三#1,09:00:00,951,932.4
核能(Nuclear),核三#1,09:10:00,951,932.4
核能(Nuclear),核三#1,09:20:00,951,932.4
核能(Nuclear),核三#1,09:30:00,951,933.5
核能(Nuclear),核三#1,09:40:00,951,932.4
核能(Nuclear),核三#1,09:50:00,951,932.4
核能(Nuclear),核三#1,10:00:00,951,933.5
核能(Nuclear),核三#1,10:10:00,951,933.5
核能(Nuclear),核三#1,10:20:00,951,931.3
核能(Nuclear),核三#1,10:30:00,951,932.4
核能(Nuclear),核三#1,10:40:00,951,932.4
核能(Nuclear),核三#1,10:50:00,951,932.4
核能(Nuclear),核三#1,11:00:00,951,932.4
核能(Nuclear),核三#1,11:10:00,951,930.1
核能(Nuclear),核三#1,11:20:00,951,931.3
核能(Nuclear),核三#1,11:30:00,951,931.3
核能(Nuclear),核三#1,11:40:00,951,932.4
核能(Nuclear),核三#1,11:50:00,951,931.3
核能(Nuclear),核三#1,12:00:00,951,931.3
核能(Nuclear),核三#1,12:10:00,951,931.3
核能(Nuclear),核三#1,12:20:00,951,932.4
核能(Nuclear),核三#1,12:30:00,951,933.5
核能(Nuclear),核三#1,12:40:00,951,932.4
核能(Nuclear),核三#1,12:50:00,951,932.4
核能(Nuclear),核三#1,13:00:00,951,933.5
核能(Nuclear),核三#1,13:10:00,951,933.5
核能(Nuclear),核三#1,13:20:00,951,932.4
核能(Nuclear),核三#1,13:30:00,951,932.4
核能(Nuclear),核三#1,13:40:00,951,933.5
核能(Nuclear),核三#1,13:50:00,951,933.5
核能(Nuclear),核三#1,14:00:00,951,932.4
核能(Nuclear),核三#1,14:10:00,951,934.7
核能(Nuclear),核三#1,14:20:00,951,937
核能(Nuclear),核三#1,14:30:00,951,934.7
核能(Nuclear),核三#1,14:40:00,951,937
核能(Nuclear),核三#1,14:50:00,951,937
核能(Nuclear),核三#1,15:00:00,951,937
核能(Nuclear),核三#1,15:10:00,951,937
核能(Nuclear),核三#1,15:20:00,951,938.1
核能(Nuclear),核三#1,15:30:00,951,937
核能(Nuclear),核三#1,15:40:00,951,937
核能(Nuclear),核三#1,15:50:00,951,938.1
核能(Nuclear),核三#1,16:00:00,951,938.1
核能(Nuclear),核三#1,16:10:00,951,937
核能(Nuclear),核三#1,16:20:00,951,937
核能(Nuclear),核三#1,16:30:00,951,935.8
核能(Nuclear),核三#1,16:40:00,951,935.8
核能(Nuclear),核三#1,16:50:00,951,935.8
核能(Nuclear),核三#1,17:00:00,951,934.7
核能(Nuclear),核三#1,17:10:00,951,937
核能(Nuclear),核三#1,17:20:00,951,933.5
核能(Nuclear),核三#1,17:30:00,951,933.5
核能(Nuclear),核三#1,17:40:00,951,933.5
核能(Nuclear),核三#1,17:50:00,951,933.5
核能(Nuclear),核三#1,18:00:00,951,933.5
核能(Nuclear),核三#1,18:10:00,951,934.7
核能(Nuclear),核三#1,18:20:00,951,932.4
核能(Nuclear),核三#1,18:30:00,951,933.5
核能(Nuclear),核三#1,18:40:00,951,933.5
核能(Nuclear),核三#1,18:50:00,951,932.4
核能(Nuclear),核三#1,19:00:00,951,933.5
核能(Nuclear),核三#1,19:10:00,951,932.4
核能(Nuclear),核三#1,19:20:00,951,933.5
核能(Nuclear),核三#1,19:30:00,951,932.4
核能(Nuclear),核三#1,19:40:00,951,932.4
核能(Nuclear),核三#1,19:50:00,951,935.8
核能(Nuclear),核三#1,20:00:00,951,933.5
核能(Nuclear),核三#1,20:10:00,951,934.7
核能(Nuclear),核三#1,20:20:00,951,934.7
核能(Nuclear),核三#1,20:30:00,951,932.4
核能(Nuclear),核三#1,20:40:00,951,932.4
核能(Nuclear),核三#1,20:50:00,951,932.4
核能(Nuclear),核三#1,21:00:00,951,933.5
核能(Nuclear),核三#1,21:10:00,951,933.5
核能(Nuclear),核三#1,21:20:00,951,933.5
核能(Nuclear),核三#1,21:30:00,951,931.3
核能(Nuclear),核三#1,21:40:00,951,933.5
核能(Nuclear),核三#1,21:50:00,951,933.5
核能(Nuclear),核三#1,22:00:00,951,934.7
核能(Nuclear),核三#1,22:10:00,951,933.5
核能(Nuclear),核三#1,22:20:00,951,932.4
核能(Nuclear),核三#1,22:30:00,951,932.4
核能(Nuclear),核三#1,22:40:00,951,933.5
核能(Nuclear),核三#1,22:50:00,951,935.8